Flag for Denmark Weather past 2 weeks in Copenhagen, Denmark

Now
63 °F

Clear.


Feels Like: 63 °F
Forecast: 59 / 67 °F
Wind: 9 mph from South

Location: Koebenhavn-Kastrup Airport

Current Time: Aug 30, 2015 at 4:42:23 AM

Latest Report: Aug 30, 2015 at 4:20 AM


Visibility: 10 mi

Pressure: 30.15 "Hg

Humidity: 83%

Dew point: 57 °F

Location of CopenhagenLocation

Historic Weather in Copenhagen — Graph

°F

Copenhagen temperature yesterday

Maximum temperature yesterday: 70 °F (at 1:20 PM)
Minimum temperature yesterday: 55 °F (at 5:50 AM)
Average temperature yesterday: 62 °F

Past Weeks' High & Low Weather Summary

 TemperatureHumidityPressure
High77 °F (Aug 15, 1:20 PM)100% (Aug 25, 6:50 AM)30.36 "Hg (Aug 25, 6:50 AM)
Low55 °F (Aug 22, 4:50 AM)36% (Aug 20, 3:20 PM)29.68 "Hg (Aug 25, 3:50 AM)
Average66 °F72%30.02 "Hg
* Reported Aug 15 3:20 AM — Aug 30 3:20 AM, Copenhagen, Weather by CustomWeather, © 2015

Note: Actual official high and low records may vary slightly from our data, if they occured in-between our weather recording intervals... More about our weather records

Advertising

Copenhagen weather history for previous 24 hours

 ConditionsComfort  
Time TempWeatherWind HumidityBarometerVisibility
3:20 AM
Sun, Aug 30
63 °FClear.8 mph83%30.15 "Hg10 mi
2:50 AM63 °FClear.7 mph88%30.18 "Hg10 mi
2:20 AM63 °FClear.9 mph83%30.15 "Hg10 mi
1:50 AM63 °FClear.7 mph83%30.18 "Hg10 mi
1:20 AM63 °FClear.7 mph83%30.18 "Hg10 mi
12:50 AM61 °FClear.8 mph77%30.18 "Hg10 mi
12:20 AM61 °FClear.7 mph83%30.18 "Hg10 mi
11:20 PM
Sat, Aug 29
61 °FClear.5 mph88%30.18 "Hg10 mi
10:50 PM63 °FClear.7 mph77%30.18 "Hg10 mi
10:20 PM63 °FClear.7 mph77%30.18 "Hg10 mi
9:50 PM61 °FClear.6 mph83%30.18 "Hg10 mi
9:20 PM61 °FClear.7 mph83%30.18 "Hg10 mi
8:50 PM61 °FSunny.8 mph83%30.18 "Hg10 mi
8:20 PM63 °FSunny.8 mph73%30.18 "Hg10 mi
7:50 PM63 °FSunny.9 mph73%30.18 "Hg10 mi
7:20 PM64 °FSunny.12 mph73%30.18 "Hg10 mi
6:50 PM66 °FSunny.12 mph64%30.18 "Hg10 mi
6:20 PM66 °FScattered clouds.14 mph68%30.18 "HgN/A
5:50 PM66 °FPassing clouds.15 mph73%30.21 "HgN/A
5:20 PM66 °FPassing clouds.15 mph73%30.21 "HgN/A
4:50 PM68 °FPassing clouds.15 mph69%30.21 "HgN/A
4:20 PM68 °FScattered clouds.12 mph60%30.21 "HgN/A
3:50 PM68 °FScattered clouds.9 mph60%30.21 "HgN/A
3:20 PM70 °FPartly sunny.10 mph57%30.21 "HgN/A
2:50 PM68 °FPartly sunny.12 mph56%30.21 "HgN/A
2:20 PM70 °FBroken clouds.9 mph57%30.21 "HgN/A
1:50 PM68 °FBroken clouds.10 mph56%30.21 "HgN/A
1:20 PM70 °FPartly sunny.13 mph57%30.21 "HgN/A
12:50 PM68 °FPartly sunny.10 mph56%30.21 "HgN/A
12:20 PM66 °FPartly sunny.12 mph64%30.21 "HgN/A
11:50 AM66 °FBroken clouds.9 mph68%30.21 "HgN/A
11:20 AM66 °FBroken clouds.10 mph64%30.21 "HgN/A
10:50 AM64 °FBroken clouds.8 mph68%30.21 "HgN/A
9:50 AM63 °FBroken clouds.10 mph77%30.18 "HgN/A
9:20 AM63 °FPartly sunny.13 mph77%30.18 "HgN/A
8:50 AM61 °FScattered clouds.13 mph83%30.18 "HgN/A
7:50 AM59 °FPassing clouds.10 mph88%30.15 "HgN/A
7:20 AM59 °FPassing clouds.10 mph88%30.15 "HgN/A
6:50 AM57 °FPassing clouds.9 mph88%30.15 "HgN/A
6:20 AM57 °FPassing clouds.9 mph88%30.15 "HgN/A
5:50 AM55 °FClear.7 mph94%30.12 "Hg10 mi
5:20 AM57 °FClear.8 mph88%30.12 "Hg10 mi
4:50 AM57 °FClear.7 mph88%30.12 "Hg10 mi
4:20 AM57 °FClear.9 mph88%30.12 "Hg10 mi
Weather by CustomWeather, © 2015

See weather overviewHow to use our weather pages